Location: Chippewa Lake
(41.0698°N, 81.9010°W)
Time: 01:44:41
(UTC+00:00)

Cosmos 1400 Rocket - Pass Details

Date: 09 May 2021
Orbit: 520 x 568 km, 81.2° (Epoch: 24 June)

Event Time Altitude Azimuth Distance (km) Brightness Sun altitude
Rises 07:30:51 0° 341° (NNW) 2,769 6.9 -24.5°
Reaches altitude 10° 07:33:09 10° 333° (NNW) 1,863 5.8 -24.3°
Enters shadow 07:35:24 26° 310° (NW) 1,116 4.4 -24.0°
